RH
22 24 24 20 22 27 29 40 55 63 73 73 50 29 28 29 27 32 34 30 32 38 49 55 49 40 38 39 33 21 13 10 10 10 10 12 14 17 20 21 21 21 19 15 11 8 7 6 6 5 5 5 4 4 4 5 5 4 4 4 4 4 5 5 5 5 5 4 4 7 20 38 48 51 56 59 53 46 39 28 16 5 3 10 20
22 21 19 19 37 55 45 46 66 75 74 57 38 33 29 27 34 38 36 32 36 43 50 59 55 48 50 44 28 15 12 11 10 11 13 15 18 20 22 22 22 21 19 15 11 9 7 6 6 6 5 5 5 5 4 5 4 5 4 4 5 4 4 5 5 5 4 4 3 7 22 40 50 56 60 63 60 55 51 46 32 14 5 5 11
42 31 34 36 53 77 65 54 66 66 54 39 40 49 37 31 44 46 42 39 42 50 55 63 67 65 59 41 21 14 13 12 12 14 17 18 21 23 23 23 22 20 16 12 10 8 7 7 6 6 6 5 5 5 5 5 5 5 5 4 4 4 4 4 5 5 4 4 3 7 24 43 56 61 60 64 66 61 56 57 51 28 9 6 6
75 57 59 58 62 81 77 66 66 51 43 52 54 49 35 34 50 58 58 50 45 53 60 69 77 72 54 31 18 16 14 14 17 18 20 22 24 24 23 23 21 17 13 9 8 7 7 7 6 6 6 5 5 5 5 5 5 5 4 5 4 3 4 4 5 5 4 5 3 7 25 46 63 66 62 64 64 61 57 58 64 47 18 6 6
87 75 68 70 73 82 82 74 70 54 45 57 53 37 31 37 55 64 57 49 49 57 64 72 74 60 39 24 17 17 17 19 21 22 25 27 26 24 23 22 19 14 11 8 7 7 7 7 6 6 6 6 5 5 6 5 5 5 4 4 3 3 3 3 5 4 4 6 2 9 32 53 68 71 66 61 54 55 57 52 60 61 35 12 8
70 79 71 79 86 85 86 69 56 49 39 42 41 34 41 50 61 60 48 48 57 61 66 70 64 46 29 22 20 21 23 25 27 29 30 28 25 24 22 20 16 12 10 8 7 7 8 7 6 6 5 6 6 5 6 6 5 5 4 4 3 3 3 3 4 3 4 5 2 14 43 62 71 73 65 54 47 44 49 56 65 69 53 27 12
53 79 71 76 81 74 74 54 36 37 33 39 41 34 41 53 54 52 52 57 58 60 65 62 51 34 24 25 29 30 31 33 35 34 30 26 25 23 20 17 14 12 10 8 8 8 8 8 7 6 6 5 6 5 6 5 5 5 4 4 3 3 3 3 3 3 4 4 4 17 45 62 65 66 57 45 42 34 34 56 73 74 65 44 22
58 83 72 67 66 60 60 46 37 37 31 34 38 31 34 41 42 43 51 59 58 58 57 47 36 29 33 44 46 42 40 40 37 32 28 26 24 22 19 15 13 12 10 9 9 9 9 8 7 6 5 5 5 5 5 5 5 5 4 4 3 3 3 3 3 3 3 4 4 14 42 61 58 57 52 40 35 30 34 55 67 71 72 55 32
69 82 73 65 54 51 52 45 42 40 30 25 25 28 33 43 55 52 50 59 61 55 46 36 30 33 51 66 63 53 47 42 35 29 27 25 24 22 18 14 12 12 11 11 10 10 9 8 8 6 5 5 4 4 4 5 5 4 4 4 3 3 3 3 3 2 3 4 3 8 33 61 62 53 50 41 32 34 53 72 68 69 81 68 40
77 79 72 67 53 50 51 46 43 37 31 27 24 28 33 46 62 62 62 69 68 60 51 41 39 49 67 75 68 57 48 38 31 27 26 25 23 21 16 13 12 13 13 13 12 10 9 8 7 6 5 5 4 4 4 5 5 4 4 4 3 3 3 3 3 2 3 4 4 5 24 56 62 46 40 40 38 38 51 69 70 71 85 76 50
82 77 69 67 57 56 54 49 46 37 32 30 28 30 32 39 49 58 71 77 73 72 69 65 66 72 77 73 64 53 42 32 28 27 26 24 22 19 16 15 15 16 16 15 13 11 9 8 7 6 6 5 4 4 4 4 5 4 4 4 3 3 3 3 3 3 3 3 5 5 20 53 63 46 36 38 45 47 47 63 75 75 82 75 54
85 78 70 67 59 54 51 47 44 38 33 31 30 32 32 35 42 54 71 76 72 74 78 81 82 78 71 62 52 41 32 28 27 27 26 24 21 19 19 19 20 21 20 19 17 13 11 9 8 7 6 6 5 4 5 4 5 4 4 4 4 3 3 3 3 3 3 3 5 5 15 49 70 55 37 32 41 51 52 65 81 79 76 68 50
87 83 76 70 61 50 45 45 43 38 35 33 35 36 34 37 44 56 69 72 70 74 81 82 77 68 55 44 36 30 28 29 28 27 25 23 22 22 23 24 24 25 24 24 22 18 16 12 9 8 7 6 6 5 5 4 5 5 5 4 4 4 3 3 3 3 3 3 5 5 8 34 67 67 47 37 40 48 52 58 72 78 73 64 52
92 91 85 72 61 52 45 45 45 43 41 40 42 43 42 43 48 56 63 65 68 77 83 82 75 60 41 31 31 30 30 30 28 27 26 24 25 25 27 28 28 28 28 27 26 22 19 16 12 10 8 7 6 5 5 4 5 5 5 5 4 4 4 3 3 3 4 3 3 6 5 18 55 76 69 57 52 54 56 50 47 52 52 51 50
94 97 85 71 65 59 52 52 54 52 51 50 50 51 51 51 50 53 59 65 70 76 77 75 66 49 36 35 34 31 31 30 28 28 27 26 28 29 30 31 31 31 30 29 28 25 22 19 16 13 10 8 6 5 5 4 5 5 5 5 4 4 4 3 4 3 3 4 3 5 6 8 34 70 84 76 67 64 67 63 54 46 39 44 53
90 95 81 75 75 65 56 58 61 58 57 56 53 53 57 58 56 57 63 68 68 68 67 63 53 44 42 40 34 31 30 29 29 29 28 29 30 31 33 34 33 32 32 31 30 28 25 22 19 16 14 10 8 6 5 5 5 5 5 5 4 4 4 4 4 4 3 4 3 4 8 5 12 46 79 88 82 74 72 72 72 66 55 53 59
81 87 80 81 79 67 60 61 61 58 56 55 52 54 60 63 62 61 65 66 65 65 62 57 51 47 42 37 32 32 30 30 31 31 31 32 32 34 35 35 34 33 32 32 31 30 28 25 22 20 18 15 12 9 7 6 5 5 5 5 5 4 4 4 4 4 4 4 4 4 7 9 5 19 54 84 92 86 80 76 74 71 70 70 71
80 86 83 81 78 73 66 60 58 55 51 51 53 58 63 64 64 64 65 66 67 67 64 59 54 47 40 35 33 32 31 32 33 32 33 34 35 37 37 36 36 34 33 34 33 33 32 29 26 23 21 19 17 13 9 7 6 6 5 5 5 5 5 5 5 5 4 3 5 5 5 9 9 7 23 59 88 95 94 90 84 76 71 73 76
84 85 79 77 76 74 62 50 52 54 53 55 57 60 63 66 70 74 75 76 77 73 66 59 52 45 40 37 34 34 35 34 34 34 35 36 37 38 38 39 38 36 36 36 36 36 34 33 29 25 23 21 19 16 12 9 7 7 6 6 6 6 6 6 6 5 5 4 4 6 6 7 10 9 7 25 58 87 98 97 95 90 80 72 69
75 72 72 77 78 70 57 48 51 54 55 58 60 61 62 65 72 76 77 79 77 71 64 58 52 46 42 38 37 37 36 35 36 36 36 36 38 39 40 41 40 39 40 39 40 38 36 34 31 27 23 21 20 17 15 12 10 9 9 8 9 9 9 8 8 7 6 6 5 5 7 7 9 12 9 7 22 54 83 93 94 96 93 87 76
64 62 70 82 79 65 56 54 53 53 55 55 56 59 62 63 67 69 69 70 69 66 64 60 53 47 43 41 40 38 37 37 37 36 37 38 39 41 43 44 43 43 43 43 43 40 37 35 31 27 23 21 19 18 16 14 13 12 12 12 12 12 12 11 10 10 8 8 8 6 6 8 9 11 11 9 8 19 47 73 87 92 96 98 94
62 63 72 83 78 62 57 59 55 55 58 55 54 60 65 66 66 66 66 65 66 68 67 63 57 55 52 49 44 41 40 40 39 39 39 40 41 43 44 45 46 46 46 46 45 42 38 35 31 27 23 21 19 17 17 16 15 15 15 15 14 13 13 13 11 12 11 9 9 9 7 7 9 11 12 12 10 8 16 37 63 82 91 96 99
68 70 74 79 72 58 54 55 51 50 53 55 57 62 63 64 65 66 68 68 67 68 67 66 65 64 61 57 51 47 44 42 42 42 42 42 43 44 45 47 48 50 49 49 48 44 38 34 30 26 23 21 19 18 18 18 17 17 17 16 16 14 13 14 12 12 12 11 10 10 10 9 9 12 13 12 12 11 9 12 28 53 75 88 93
66 68 72 73 67 58 52 49 46 44 46 48 52 56 59 62 63 64 67 69 68 68 69 69 69 67 66 63 58 52 48 46 45 44 44 45 45 45 47 49 51 52 52 51 50 44 38 34 29 25 23 21 20 20 20 19 19 18 17 16 15 14 13 13 12 12 12 12 12 12 11 11 11 12 13 14 13 13 12 10 10 20 43 69 85
55 59 67 70 66 59 51 47 47 46 46 47 50 54 57 58 60 62 64 64 65 68 69 70 69 69 69 66 62 57 52 49 48 47 47 46 47 48 49 52 54 55 54 53 51 45 39 34 29 25 24 22 22 22 20 20 19 17 17 16 14 13 13 12 12 12 13 13 14 14 14 13 14 14 14 15 15 14 14 13 11 10 15 34 60
50 55 63 65 62 56 50 50 51 50 51 53 53 56 61 63 61 59 59 60 63 65 67 68 69 70 71 68 64 59 55 52 50 50 49 49 49 51 52 55 57 56 56 55 53 47 40 34 28 26 24 23 23 22 20 19 18 16 15 14 13 12 12 12 12 13 14 16 16 17 17 16 16 16 15 15 15 15 15 14 14 13 10 12 25
49 52 55 55 55 55 53 56 58 61 65 63 56 55 64 74 75 71 70 69 67 65 63 63 64 67 70 69 66 62 57 54 53 52 52 51 53 54 55 58 59 58 58 57 54 49 42 33 28 26 25 24 22 21 19 17 16 15 13 12 12 13 13 13 15 15 16 18 18 18 18 18 17 17 16 16 15 14 14 14 13 13 13 12 11
48 53 55 54 56 57 58 61 61 64 69 68 62 55 54 63 70 74 81 84 78 70 65 63 64 65 67 67 66 64 60 55 54 54 54 54 56 58 59 60 62 60 59 59 56 50 41 32 28 26 24 23 21 19 17 15 14 13 13 14 15 16 17 17 17 18 18 18 18 18 17 17 17 17 16 16 15 14 13 13 13 12 12 12 12
52 58 58 57 62 66 67 65 59 61 66 65 64 61 59 65 67 65 75 86 83 74 66 64 65 65 67 69 67 66 63 58 56 56 56 56 58 61 62 64 64 62 62 60 55 47 39 31 27 26 23 21 19 17 15 14 15 16 16 18 19 18 18 18 17 17 16 15 14 14 13 13 13 13 13 13 13 13 12 12 12 12 11 11 10
56 60 58 57 62 69 74 72 66 69 70 61 59 62 64 69 70 72 81 88 86 80 74 70 67 63 64 68 71 70 66 60 58 57 57 59 61 64 66 66 64 64 63 59 51 42 35 29 26 24 21 18 16 15 16 17 19 21 21 20 20 18 16 14 13 12 11 10 9 8 8 8 8 8 8 8 8 8 9 10 10 10 10 11 11
59 60 59 58 57 58 65 69 69 71 65 53 57 67 69 69 73 81 87 84 78 77 76 71 65 60 61 67 72 73 68 62 60 60 60 61 64 67 68 67 66 65 63 56 46 37 30 27 24 21 18 18 18 19 21 23 23 22 21 19 16 14 12 10 9 8 7 6 6 5 5 5 5 5 5 5 5 5 5 6 7 7 8 9 10
62 62 61 60 54 48 49 55 62 68 64 57 60 66 64 62 65 67 66 61 58 58 59 61 62 61 64 72 77 75 69 65 63 62 63 65 68 71 70 68 68 66 60 51 40 32 27 25 22 21 20 21 22 24 24 23 22 19 16 14 12 10 9 8 7 6 6 5 4 4 4 4 4 4 3 3 3 3 4 4 4 5 6 7 8
62 62 61 59 54 51 54 62 70 76 72 64 60 56 51 48 50 50 48 47 46 45 47 60 72 75 74 79 82 78 71 67 66 66 67 69 72 73 71 69 69 65 56 45 35 29 26 25 24 24 25 26 26 26 23 19 17 14 12 11 10 8 7 6 6 5 5 4 4 3 3 3 3 3 2 3 2 2 2 3 3 3 3 4 5
57 59 59 59 59 59 62 67 68 66 62 59 56 53 50 47 46 47 46 46 48 46 46 58 76 87 89 87 86 82 75 71 71 71 72 74 75 74 72 70 69 62 51 40 32 29 27 27 28 28 29 29 26 22 19 15 13 12 10 9 7 6 6 5 5 4 3 3 3 2 2 2 2 2 2 2 2 2 2 2 2 2 2 2 2
50 53 55 58 61 59 59 60 58 56 59 64 62 55 50 46 45 46 48 51 53 51 50 59 74 88 96 96 92 87 82 80 78 77 77 78 77 75 73 72 67 58 47 37 31 30 31 31 31 32 31 27 22 18 15 13 11 9 8 7 6 5 5 4 3 3 2 2 2 2 2 2 2 2 2 2 2 2 2 2 2 1 2 2 2
44 46 44 43 44 43 44 50 57 63 67 67 60 51 48 48 50 52 54 54 52 49 50 61 74 86 95 99 95 90 88 88 87 85 83 81 79 76 74 70 63 53 43 35 32 33 34 34 35 34 29 22 18 15 13 11 9 8 6 6 5 4 3 3 2 2 2 2 2 2 2 2 2 2 2 2 2 2 2 2 2 2 2 2 2
35 34 33 36 40 37 35 42 53 63 63 57 52 50 53 56 56 56 54 51 49 47 49 60 76 87 96 99 97 94 94 94 94 90 86 83 79 77 73 67 59 49 40 35 35 37 38 38 37 32 24 18 15 13 11 9 7 7 6 5 3 3 3 2 2 2 2 2 2 3 2 2 3 3 3 3 2 3 3 3 2 3 3 3 2
30 29 31 39 45 42 40 45 52 54 53 51 51 54 56 57 57 55 52 48 46 46 49 59 74 88 98 100 98 99 100 98 96 92 87 83 79 76 72 63 54 46 39 37 40 42 42 41 37 28 19 15 13 11 9 8 7 5 4 3 3 2 3 2 2 2 2 3 3 3 3 3 3 3 3 3 3 3 3 3 4 3 3 3 3
33 36 39 42 46 48 51 52 52 52 53 53 54 55 54 54 53 51 48 46 46 48 54 63 75 89 99 100 99 101 101 98 97 94 88 83 79 75 68 59 50 44 41 42 45 46 46 43 33 23 16 14 11 9 8 7 5 4 3 3 3 3 3 3 3 3 3 3 3 3 3 3 3 4 4 3 4 4 4 4 4 4 4 4 4
41 44 44 47 52 59 63 61 58 59 59 59 60 59 56 53 51 49 47 45 46 51 58 68 80 92 100 100 101 102 100 98 99 95 87 82 79 73 64 54 49 47 48 49 49 51 49 41 28 18 15 12 10 8 7 6 4 3 3 3 3 3 4 4 4 4 3 3 3 3 4 4 4 4 4 4 4 4 5 5 5 4 5 5 5
55 55 56 60 65 68 68 67 67 67 67 67 66 62 57 54 51 48 44 43 47 53 57 63 77 94 101 101 101 101 101 101 98 91 86 83 77 69 60 53 51 55 56 54 54 55 49 34 21 15 13 11 8 7 6 4 3 3 3 4 4 4 4 4 4 4 4 4 4 4 4 4 5 5 5 5 5 5 5 5 5 5 5 5 5
59 61 64 69 72 72 71 71 72 73 73 72 66 60 57 55 51 48 46 45 47 49 49 57 77 97 102 100 101 102 101 99 95 90 87 82 73 65 58 53 56 61 61 59 59 55 42 25 17 14 12 9 7 6 4 3 3 3 4 4 5 5 5 4 4 4 4 4 5 5 5 5 5 6 6 5 5 5 5 5 5 5 5 5 5
70 71 74 75 75 74 74 75 77 78 77 71 63 58 56 52 49 46 43 43 44 43 46 63 88 100 101 100 102 102 100 97 94 91 85 77 69 62 57 56 61 65 64 63 60 48 31 19 15 13 9 7 6 4 4 3 3 4 4 5 5 5 5 5 4 4 5 5 5 5 6 6 6 6 6 6 5 5 5 5 6 6 5 5 6
80 80 80 80 79 79 79 80 81 81 76 66 57 52 50 48 47 45 43 51 64 69 71 83 97 101 101 102 103 102 101 99 94 86 78 70 66 63 61 64 68 69 68 63 51 35 23 17 14 10 7 6 4 3 3 4 4 5 5 5 6 6 6 5 4 5 5 6 6 6 6 7 7 6 5 5 5 5 5 5 6 6 6 6 6
82 81 81 80 79 80 81 82 81 76 67 57 51 50 49 46 43 40 39 48 69 83 87 91 98 101 101 102 103 102 100 94 85 77 72 70 69 70 71 74 74 72 66 54 37 25 19 15 11 7 5 4 3 3 4 4 5 5 5 6 6 6 6 6 5 6 6 6 6 7 7 7 7 6 5 5 5 5 5 6 6 6 7 7 7
80 80 80 80 79 79 80 80 77 69 58 52 51 51 49 44 42 44 44 45 59 77 87 91 96 101 101 102 102 98 91 83 78 75 74 74 74 75 77 77 74 67 55 39 27 21 17 12 8 5 4 4 3 4 4 5 5 5 5 6 6 6 7 6 6 6 6 7 7 7 8 9 7 6 5 5 5 5 6 6 7 8 8 8 8
81 81 81 80 79 80 83 82 76 66 56 54 56 55 50 44 44 54 63 67 76 89 96 97 99 100 101 101 97 89 82 79 77 76 75 74 73 75 76 74 66 55 41 29 23 19 13 8 6 4 4 4 4 4 5 5 5 5 5 5 5 6 7 6 6 6 6 7 8 9 9 9 8 6 6 5 5 6 6 7 8 8 8 8 8
82 83 83 82 83 86 86 81 73 63 56 57 58 53 46 38 41 58 76 84 90 96 99 100 100 99 100 101 96 87 82 79 78 76 73 69 67 70 72 67 56 44 32 25 21 15 9 6 4 4 4 4 4 5 5 4 5 5 5 5 5 6 7 7 7 7 7 8 9 9 10 9 8 6 6 6 6 6 7 8 9 9 9 9 9
85 86 85 86 90 90 82 72 65 58 57 60 57 52 50 46 51 70 88 95 98 100 100 101 101 98 97 98 95 88 83 82 80 76 68 61 61 65 67 60 47 35 27 23 18 12 6 4 4 4 4 4 4 5 5 4 5 4 4 5 6 6 7 8 7 7 8 9 9 10 10 10 8 8 8 7 7 7 7 8 10 10 10 10 9
87 90 90 90 89 82 71 65 60 58 62 65 60 62 75 82 83 91 97 97 98 99 97 96 93 88 86 89 88 86 83 80 74 65 57 56 61 65 62 51 38 29 25 21 15 8 4 4 4 4 4 4 5 5 5 5 5 5 5 6 6 7 8 8 8 8 8 9 10 11 11 10 9 9 9 8 8 8 8 9 10 11 11 11 10
92 94 91 86 81 73 67 65 64 66 73 73 63 67 87 100 97 94 92 90 89 89 86 84 82 81 83 85 84 80 74 66 59 56 58 64 68 64 54 42 32 27 23 18 11 6 4 4 4 4 4 4 4 5 5 5 5 5 6 6 7 9 9 9 9 9 9 10 12 12 12 12 11 10 10 10 10 9 9 10 11 12 12 11 11
Wind_Speed
25 28 30 32 33 33 32 31 29 28 26 25 24 24 23 22 21 19 18 17 17 17 18 18 18 17 16 15 14 15 15 14 12 12 11 12 12 13 14 16 16 17 18 18 18 18 18 17 17 17 18 18 18 17 17 18 19 20 22 23 25 26 28 30 31 32 34 35 37 38 39 38 36 34 33 32 32 33 34 34 33 33 34 33 31
30 32 33 33 33 32 31 30 28 26 26 25 25 24 22 21 19 18 18 17 17 18 18 18 18 18 16 15 14 14 13 12 12 12 11 11 12 13 15 16 16 17 18 18 18 18 18 18 18 18 18 18 18 18 18 19 21 22 23 25 26 27 29 30 32 34 35 37 38 39 39 38 35 33 33 32 31 32 33 34 33 31 33 34 32
29 30 31 29 28 28 28 29 28 26 25 25 25 22 19 18 17 17 17 17 17 18 18 18 18 17 16 15 14 13 12 12 12 11 11 12 13 14 15 16 17 17 18 18 18 18 19 19 19 18 18 18 18 18 19 20 22 23 25 26 27 28 29 31 33 35 37 38 39 40 39 38 35 34 34 32 32 33 32 33 33 32 32 33 32
27 25 25 25 26 27 26 26 25 26 25 23 23 21 19 17 15 15 15 15 16 17 17 16 16 16 15 14 13 12 11 11 11 11 12 12 13 14 15 16 17 18 18 18 18 19 19 19 19 19 19 18 19 19 20 21 22 24 26 27 28 29 30 31 33 35 37 39 40 41 40 37 35 36 36 33 32 35 34 32 32 32 32 32 32
27 25 25 25 27 26 23 22 22 23 24 21 19 20 18 16 15 16 16 16 16 17 17 16 16 15 14 13 12 11 11 11 11 12 12 13 14 14 16 17 18 18 18 19 19 19 20 20 19 19 19 19 19 20 21 22 23 25 26 27 29 30 31 32 33 35 36 38 40 42 40 37 35 35 35 35 34 34 36 35 33 32 31 31 31
24 25 27 26 25 22 18 19 19 18 20 19 17 17 15 14 15 17 17 16 16 16 16 16 15 14 13 13 12 11 10 11 12 13 13 13 14 15 16 17 17 18 18 19 19 20 20 20 20 19 19 20 20 21 22 23 24 26 27 28 29 31 32 32 33 34 35 37 40 41 40 36 33 33 34 36 34 32 34 35 33 31 31 31 30
21 24 26 27 26 23 19 18 18 18 18 16 15 15 15 14 15 15 15 15 15 16 16 16 15 14 13 12 12 11 11 12 13 14 14 14 14 15 16 16 17 17 18 19 19 20 20 20 20 19 20 21 21 22 23 24 25 26 27 28 30 31 31 31 32 34 35 37 39 40 39 35 33 33 35 36 34 31 32 32 31 30 30 30 30
20 23 27 30 28 26 24 21 19 19 18 16 14 15 16 15 16 15 15 14 14 16 16 15 15 13 12 12 12 11 12 13 13 14 14 14 15 15 15 15 16 17 18 19 19 20 20 20 20 20 21 21 22 23 24 25 26 27 28 29 30 30 31 31 32 34 36 37 39 41 39 35 33 34 34 33 33 31 30 28 28 30 29 28 28
21 24 28 29 22 21 22 21 19 18 17 17 17 17 17 16 15 16 15 14 14 16 17 16 15 14 13 13 12 12 13 13 13 13 14 15 15 15 15 15 15 16 17 19 19 19 20 20 21 21 22 23 23 24 25 26 27 27 27 28 29 30 31 32 33 34 36 37 38 40 40 36 33 32 31 30 30 28 26 26 26 28 28 27 27
23 24 28 25 17 15 18 18 17 17 17 18 19 20 20 18 17 17 16 14 13 15 16 16 16 15 15 14 13 13 13 13 13 13 14 14 15 15 15 14 15 16 17 18 19 20 20 21 22 23 23 24 25 25 26 27 27 27 27 27 28 30 31 31 32 34 35 37 37 38 39 37 34 31 29 28 28 26 24 25 28 27 26 26 26
25 25 27 23 15 13 16 15 15 15 17 18 20 22 22 21 20 19 17 14 13 14 15 16 16 15 14 13 13 13 12 12 13 13 13 14 14 14 14 14 15 17 18 19 20 21 22 23 24 24 25 25 26 26 26 27 28 28 27 27 28 30 30 31 32 33 34 36 37 37 37 35 33 31 28 26 26 25 23 22 25 25 25 26 26
28 26 27 24 16 12 12 13 14 15 16 19 21 23 24 23 22 21 18 16 14 13 13 14 14 13 13 12 12 12 12 12 12 13 13 13 13 14 15 16 17 18 19 20 21 22 22 23 24 25 26 26 26 27 27 28 28 28 27 28 29 30 31 31 32 33 34 35 36 36 36 33 30 29 28 25 25 24 21 19 20 21 21 23 24
31 28 28 25 19 13 12 15 16 17 19 20 22 23 24 24 23 21 19 17 16 14 13 13 13 13 12 12 12 12 12 12 12 12 13 12 13 15 16 17 18 19 21 21 22 22 23 24 25 26 26 27 27 27 28 28 28 28 28 28 29 30 31 32 32 33 34 34 34 34 35 34 30 28 27 24 23 22 19 16 17 18 19 20 22
32 30 28 26 21 17 16 18 20 20 21 21 22 22 23 23 22 21 20 18 17 15 14 14 14 13 12 12 12 12 12 12 12 12 12 12 14 15 17 18 20 21 22 22 23 23 24 25 26 26 27 27 27 28 28 28 29 28 28 29 29 30 30 31 32 32 33 33 33 33 33 33 31 28 26 23 21 20 18 15 15 17 19 21 22
34 32 30 28 24 20 19 20 21 22 22 21 21 20 21 21 21 20 19 18 17 16 15 14 13 13 12 13 13 12 12 11 11 12 12 13 15 16 18 19 20 21 22 22 23 24 24 25 26 27 27 28 28 28 28 28 28 28 29 29 29 30 30 31 31 32 32 32 33 32 31 31 31 28 25 23 20 19 18 16 15 17 20 21 22
36 34 32 30 27 23 20 21 21 21 21 20 19 17 18 20 20 20 19 18 17 16 14 13 13 13 14 13 12 12 11 11 11 11 13 14 16 17 19 20 21 21 21 22 23 23 24 25 26 27 27 28 27 28 28 27 28 28 29 29 30 30 30 30 31 31 31 32 31 31 31 30 30 29 26 23 21 19 18 17 17 18 19 21 22
35 35 33 31 29 25 21 20 19 20 20 19 17 16 16 19 20 20 19 18 17 15 14 14 15 14 14 13 12 12 11 11 11 12 14 15 16 18 19 20 21 21 21 22 22 23 24 25 26 27 27 27 27 27 27 27 27 28 28 29 29 30 30 30 30 30 30 30 30 30 30 29 29 29 27 24 21 18 17 17 18 18 19 20 21
33 33 29 27 23 20 19 18 17 17 18 18 17 16 17 18 19 19 17 17 16 15 16 16 15 14 13 12 12 11 12 12 12 14 15 16 17 18 20 21 21 21 21 22 23 24 24 25 26 27 27 27 27 27 26 26 26 27 28 29 29 29 30 29 30 30 29 29 29 28 29 29 28 27 27 26 23 20 17 17 17 19 19 20 20
32 28 24 24 23 19 18 19 18 16 16 16 16 16 16 17 17 17 16 16 16 16 16 16 15 14 13 12 12 12 12 13 14 15 16 17 18 19 20 21 22 22 22 23 24 25 25 26 26 27 27 27 27 26 26 25 25 26 27 28 28 29 29 29 28 28 28 28 28 28 28 28 27 26 26 25 24 22 19 18 17 18 20 20 19
30 29 29 30 27 20 19 20 19 17 16 15 15 15 15 16 16 15 16 16 16 17 16 16 15 13 12 12 12 13 14 15 16 17 18 18 19 20 21 22 23 23 24 24 25 26 26 26 26 27 27 27 26 25 25 25 24 25 25 26 27 28 28 28 28 28 27 27 27 27 27 27 27 26 26 25 24 22 21 19 18 18 18 18 20
30 31 32 33 27 18 16 19 17 16 16 15 15 15 14 15 15 15 15 15 16 16 16 15 14 13 12 12 13 14 15 16 18 19 19 20 21 22 22 23 24 25 26 26 27 27 27 27 27 27 27 26 26 25 25 24 24 24 25 25 26 26 27 28 28 27 27 27 27 27 27 27 26 26 25 25 24 23 22 21 20 19 17 16 18
32 31 30 31 26 16 14 17 16 15 14 13 13 13 13 14 14 15 16 16 17 17 16 15 14 13 13 14 15 16 17 18 19 20 21 22 23 24 24 25 26 26 27 28 28 27 27 27 27 27 26 26 25 25 24 24 24 24 24 25 25 26 27 28 28 28 27 27 26 27 27 27 27 26 25 25 24 23 23 22 22 21 19 17 16
32 31 29 29 24 15 14 17 17 16 15 14 13 13 13 14 15 16 16 16 16 16 16 15 14 15 15 16 16 17 18 19 20 22 23 24 25 25 26 26 27 28 28 28 28 27 26 27 27 26 26 26 25 24 24 24 24 25 25 26 26 27 27 28 28 28 27 27 27 26 26 27 27 27 26 25 24 23 23 23 22 22 21 20 18
31 30 30 29 24 18 16 17 18 18 17 17 16 16 16 16 16 16 15 15 15 15 14 14 15 16 17 17 18 19 19 21 22 23 24 25 26 27 27 27 28 29 29 29 28 27 27 26 27 26 26 25 24 24 24 25 25 26 27 27 27 28 28 28 28 28 27 27 26 26 26 26 27 27 27 26 25 24 23 23 23 22 22 21 20
33 32 31 30 27 23 20 18 19 19 19 18 18 19 19 19 17 17 16 15 15 15 14 15 16 17 18 19 20 20 21 22 23 24 26 27 28 28 28 29 30 30 29 29 27 27 27 27 26 26 26 25 25 25 25 25 26 27 27 28 28 28 28 28 28 27 27 26 25 25 25 25 26 27 27 27 27 25 24 23 24 23 22 22 21
34 33 32 30 27 25 22 21 21 21 20 20 20 21 22 21 20 19 18 16 16 16 16 17 18 18 19 20 21 22 23 23 24 26 27 28 29 29 29 30 31 30 30 28 27 27 27 27 27 26 26 26 26 26 26 27 27 27 27 28 28 27 27 27 27 26 26 26 25 25 25 25 26 26 27 27 28 27 26 25 24 24 24 23 22
35 35 32 28 26 24 23 22 22 22 22 22 22 22 23 21 19 18 17 16 16 17 18 18 19 19 20 21 22 23 24 25 26 27 28 29 29 30 30 31 31 31 29 28 27 28 27 27 27 27 26 27 27 27 27 27 27 27 27 26 26 26 26 26 26 26 26 26 26 25 25 25 26 26 27 28 28 28 28 27 26 25 25 25 24
34 33 30 27 27 25 23 23 24 24 23 23 24 24 24 22 19 18 18 18 18 19 19 19 20 20 21 22 24 25 26 26 27 28 29 30 30 31 31 31 31 30 29 28 28 28 28 27 27 27 27 27 27 27 27 27 27 26 26 25 25 25 25 26 26 27 27 27 27 28 27 27 27 27 28 28 29 29 30 29 28 28 27 27 26
31 31 29 27 27 28 27 27 27 26 25 24 24 25 26 24 22 21 20 21 21 21 21 21 21 22 23 24 25 26 27 27 28 29 30 30 31 32 32 31 31 29 28 28 28 28 28 27 27 28 28 28 28 27 26 26 25 25 25 25 26 27 28 28 29 29 30 30 31 31 31 30 30 29 29 30 30 31 31 31 31 31 30 29 29
30 31 29 27 27 29 32 32 31 29 26 24 25 26 26 26 25 23 22 22 23 23 23 24 24 25 25 26 27 28 29 29 29 30 31 31 32 32 32 31 30 28 28 29 28 28 27 27 28 28 28 27 26 25 24 24 24 25 26 27 29 30 31 31 32 32 32 32 32 32 32 32 32 31 30 30 30 30 31 31 32 32 32 32 31
30 30 29 28 27 29 32 34 32 29 25 25 28 27 26 27 26 23 22 23 24 25 27 27 28 28 28 28 28 29 30 30 30 31 32 32 33 33 32 31 29 28 28 28 28 27 27 27 27 27 26 25 24 23 23 24 25 27 28 29 30 31 32 32 32 32 33 33 33 33 33 34 34 33 33 32 31 31 31 31 31 32 32 33 33
29 30 30 30 29 29 31 32 30 27 25 26 26 24 23 25 24 23 24 25 26 28 29 31 32 31 31 30 30 31 31 31 31 32 33 33 34 33 31 29 28 28 28 28 27 27 26 26 26 25 24 23 23 23 25 26 27 29 29 30 31 31 31 32 32 33 33 33 34 34 35 35 36 36 36 35 35 34 33 33 32 32 32 33 33
30 31 30 30 30 30 29 28 26 26 26 26 25 24 24 25 24 25 26 27 28 29 30 31 33 33 32 31 31 32 32 32 33 33 34 34 33 32 30 28 27 27 27 27 27 26 25 24 24 23 23 23 24 25 26 28 29 29 29 30 30 30 31 31 32 33 34 34 35 35 35 36 36 37 37 37 37 36 36 35 34 34 34 34 34
32 30 28 28 29 28 26 25 25 26 27 27 27 25 25 25 25 26 26 27 27 27 28 29 30 31 32 32 32 32 33 33 34 34 34 34 32 30 28 27 27 27 27 26 26 25 24 23 23 23 23 24 25 27 27 28 28 29 29 29 30 30 31 32 32 33 33 33 33 33 33 34 34 34 35 35 35 35 35 35 34 34 34 34 35
32 28 26 26 28 27 26 25 25 26 27 26 25 25 26 26 26 27 27 27 27 27 26 26 26 27 30 33 33 33 34 34 34 35 34 32 30 28 27 26 26 26 26 26 25 24 23 22 23 23 24 26 26 27 27 28 28 28 29 29 30 31 31 32 32 32 32 31 31 31 31 31 31 31 31 32 32 32 32 32 32 31 31 31 32
29 27 26 27 27 26 25 23 22 22 24 25 26 27 27 27 27 27 27 27 28 27 26 25 25 26 29 33 34 34 35 35 35 34 33 30 28 27 26 26 25 25 26 25 24 23 22 23 23 25 26 26 27 27 27 27 28 28 29 30 30 31 30 30 30 30 29 29 29 29 30 30 30 30 30 30 30 29 29 30 30 30 30 29 29
29 28 27 26 25 23 22 22 22 23 24 26 27 27 27 27 28 28 29 29 29 28 27 26 26 27 30 34 35 35 35 35 34 33 31 28 27 26 26 25 24 25 25 24 23 22 22 23 25 26 26 27 26 26 27 27 27 28 29 29 29 29 28 28 28 28 27 27 28 28 29 29 30 30 29 29 28 28 28 29 29 29 29 29 29
27 27 25 24 24 22 21 23 24 24 25 26 26 26 26 28 29 29 30 30 30 29 28 26 26 27 30 34 37 36 34 33 32 31 29 27 26 26 25 24 24 24 24 23 22 22 23 24 26 26 26 26 26 26 26 27 28 28 28 28 27 27 27 26 26 27 26 27 27 27 28 28 28 28 28 28 28 28 29 29 28 28 29 29 29
25 25 25 25 25 23 23 24 25 24 25 27 27 27 27 29 30 30 31 31 31 30 28 26 26 27 30 34 37 35 32 31 30 29 27 26 26 25 24 23 23 23 23 22 22 23 24 25 26 26 26 26 26 26 26 27 28 27 27 26 26 26 26 26 26 26 26 26 27 27 27 27 26 26 26 27 27 28 28 28 28 28 27 27 28
25 25 26 26 25 24 24 24 24 25 26 27 27 28 29 30 31 31 31 32 32 30 28 27 26 27 29 34 36 35 31 29 28 27 26 26 25 24 23 23 23 22 22 22 22 23 25 26 26 26 25 25 25 25 26 27 27 26 26 26 25 26 26 26 26 26 26 26 26 26 26 25 25 25 25 26 26 26 27 27 27 27 26 26 26
27 27 27 26 25 25 25 25 25 26 26 27 27 29 29 30 30 31 32 33 32 31 29 28 28 29 30 34 35 33 29 28 26 26 26 26 24 23 23 23 22 21 21 22 23 24 25 26 25 25 24 24 24 25 26 26 26 25 25 25 24 25 25 25 25 25 25 25 25 25 25 25 24 24 25 25 25 26 26 26 26 26 25 26 26
29 28 28 27 27 27 27 26 27 27 27 27 28 29 29 29 30 30 32 32 32 31 30 30 31 31 33 33 32 30 27 26 25 26 26 24 23 22 23 22 22 21 22 23 24 25 25 25 24 23 23 23 24 25 25 25 24 24 24 23 23 24 24 24 24 24 24 24 24 25 24 24 24 24 25 26 26 26 26 26 26 25 25 25 25
27 27 27 28 28 28 28 27 28 29 28 29 29 29 29 30 30 31 32 32 32 32 32 31 31 32 32 30 28 27 25 25 25 25 24 23 22 22 22 22 22 22 23 23 24 24 24 23 22 22 22 23 24 24 24 24 24 23 23 23 23 23 24 23 23 23 24 24 24 24 25 25 25 25 26 26 26 26 26 25 25 25 24 24 24
28 29 29 29 29 29 28 29 29 29 29 29 29 30 31 31 31 31 31 30 30 31 30 28 28 30 30 28 26 25 25 24 24 23 22 22 22 22 22 22 22 23 23 23 23 23 22 22 21 21 21 22 23 23 23 23 23 23 22 23 23 23 23 23 23 23 23 24 24 24 24 25 25 26 26 26 26 25 25 25 24 24 24 24 25
32 32 31 31 30 29 29 29 28 28 28 29 30 30 30 30 30 30 29 28 28 27 25 24 26 29 29 27 26 25 23 22 21 21 21 21 21 21 22 22 22 22 21 22 22 22 21 20 20 20 21 22 22 22 23 23 22 22 22 22 23 23 23 23 22 23 23 23 24 24 25 25 26 26 26 25 25 24 24 24 24 24 24 24 25
34 33 33 32 30 29 28 28 27 27 28 29 29 29 29 28 28 27 27 27 27 25 24 25 27 28 27 26 24 22 21 20 20 21 21 21 20 20 21 21 20 20 21 21 21 20 19 19 19 20 21 21 21 22 22 22 22 22 22 22 22 23 23 22 22 22 23 23 24 24 25 26 26 26 25 24 24 24 24 24 24 24 24 24 24
34 34 33 31 29 28 27 27 27 28 28 28 28 28 27 26 25 24 24 24 25 25 25 27 28 28 27 24 22 20 19 20 21 21 20 19 19 19 20 20 20 20 21 20 19 19 18 18 18 19 20 21 21 21 21 21 21 21 21 22 22 22 22 22 22 23 23 24 24 24 25 25 25 25 24 25 25 25 25 24 23 23 24 24 24
33 32 30 29 28 28 28 28 28 28 28 28 27 26 25 24 24 24 22 22 23 24 26 28 29 28 26 23 20 20 21 22 22 21 20 19 19 20 20 20 20 20 20 19 18 17 17 18 18 19 20 20 21 21 21 21 21 21 22 22 22 23 23 23 23 23 23 23 24 24 24 25 25 25 25 25 26 25 25 24 24 24 24 24 25
31 30 29 29 29 30 29 28 28 28 27 26 25 23 22 23 24 23 22 23 25 26 27 27 26 24 23 22 21 22 22 22 21 20 20 20 20 21 21 20 20 20 19 18 17 17 17 17 18 19 20 20 21 21 21 21 21 22 22 23 23 23 23 23 22 22 23 23 23 24 25 25 25 25 25 26 26 26 25 24 24 24 24 24 25
31 30 31 31 31 31 29 28 27 27 25 24 23 21 21 21 20 19 18 20 22 24 24 23 21 20 21 22 23 22 22 21 20 20 20 20 21 21 20 20 20 19 18 17 16 16 17 17 18 19 20 21 21 21 21 22 22 22 23 23 23 22 22 22 22 22 22 23 23 24 24 25 25 25 26 26 26 26 25 24 23 23 24 24 25
30 31 32 32 31 30 28 26 26 25 23 22 21 20 18 19 18 16 15 16 17 18 18 18 18 18 19 20 21 21 20 20 20 20 20 20 20 20 20 20 19 18 17 16 16 16 17 17 18 19 20 21 21 21 22 22 22 23 23 23 22 21 21 21 21 22 22 22 23 23 23 24 24 25 25 26 26 26 25 24 23 23 23 24 25
Wind_Direction
231 232 232 231 228 224 222 221 219 220 220 221 225 227 228 232 234 235 233 233 233 236 236 232 230 232 238 246 253 255 257 262 267 271 274 279 285 291 297 301 304 305 305 305 304 304 304 304 305 305 306 305 303 304 306 310 313 316 318 319 320 319 319 318 319 320 319 318 317 316 315 311 306 302 298 292 287 283 280 276 273 271 271 270 270
226 229 231 230 223 217 216 217 213 214 218 222 227 228 229 234 238 235 233 232 232 235 235 233 230 231 237 244 250 253 256 263 266 268 273 281 290 295 300 302 303 305 305 305 304 303 303 303 304 304 305 304 303 303 306 310 313 315 317 319 318 317 316 318 320 321 321 320 319 319 317 313 309 304 300 296 292 288 283 277 272 268 268 268 266
228 227 225 221 216 214 215 214 208 207 212 220 226 228 228 234 242 239 231 229 231 235 236 235 234 232 235 242 247 251 256 261 264 270 279 286 292 297 301 303 304 306 305 305 304 303 303 302 303 303 303 303 303 304 306 308 311 314 316 316 315 315 317 319 321 322 323 322 321 322 319 315 310 305 302 299 295 291 287 279 272 266 264 265 265
222 222 223 221 216 212 212 211 206 204 209 216 221 222 221 226 235 230 224 229 233 236 236 234 233 229 232 240 246 250 254 260 266 275 283 288 294 299 302 304 305 306 305 305 305 303 302 301 301 302 303 304 303 303 304 306 309 312 314 314 315 316 317 319 321 323 324 323 323 323 320 315 309 305 302 300 296 291 287 279 271 265 261 261 261
218 216 218 222 218 210 207 204 200 202 210 216 216 217 218 220 226 227 230 238 237 235 233 229 226 226 231 238 243 248 254 262 271 277 282 287 295 301 303 304 306 306 306 306 304 303 302 301 300 301 303 305 304 304 305 306 308 311 313 314 315 316 318 320 321 323 325 325 324 323 320 315 308 304 303 302 298 291 286 281 272 263 259 259 259
230 225 215 214 211 207 209 204 199 205 213 216 214 214 217 218 223 232 238 242 239 232 227 223 221 223 229 236 241 247 256 266 273 277 281 288 297 302 303 304 306 306 305 304 304 303 302 301 302 303 305 307 306 306 305 306 308 311 313 314 315 317 318 320 321 324 327 327 325 324 322 317 308 305 305 304 301 293 287 282 274 265 257 256 257
237 228 216 208 204 208 216 209 203 210 216 221 221 215 216 219 226 235 239 239 236 229 221 218 218 222 229 237 245 253 261 268 272 277 283 291 297 300 301 303 304 305 305 304 304 304 303 303 304 306 307 307 306 305 305 307 309 312 314 315 315 316 318 321 323 325 328 328 328 327 324 318 311 308 307 305 301 298 289 280 274 269 260 254 255
230 221 218 212 211 221 225 213 203 206 214 224 229 222 220 223 229 235 236 236 232 223 217 216 218 222 231 242 251 257 262 266 271 278 286 292 296 299 301 303 305 307 307 307 306 305 305 306 307 308 308 308 307 306 307 309 311 313 314 313 314 316 320 323 324 326 328 330 330 330 327 321 314 310 308 305 302 300 291 278 274 271 262 255 253
222 217 220 216 222 234 225 211 202 202 208 216 223 226 225 226 230 232 231 233 230 223 219 219 220 226 236 246 252 253 257 264 273 281 287 292 296 301 305 306 308 309 309 310 309 309 310 310 310 311 310 309 309 308 309 311 312 312 311 312 315 318 320 322 324 326 328 331 332 333 330 324 317 314 313 309 305 301 288 276 276 271 259 256 254
215 212 215 213 225 228 213 207 203 202 206 210 216 223 226 227 229 229 229 231 231 226 224 225 228 234 241 246 246 248 256 266 275 280 286 292 299 304 307 309 311 312 314 316 316 316 315 314 313 312 312 311 310 310 311 311 310 310 310 313 316 318 320 322 324 326 328 331 333 335 333 326 320 319 317 313 308 304 291 276 273 269 258 255 255
213 210 209 211 222 217 208 212 210 207 209 210 215 221 225 228 228 228 228 231 237 235 232 232 234 238 242 243 244 250 260 268 275 281 288 296 302 305 309 313 317 320 323 324 323 322 319 317 315 313 312 311 311 310 310 309 308 309 311 314 316 317 319 321 324 327 328 331 333 336 335 329 323 322 322 319 313 309 300 281 269 265 257 254 256
214 210 208 213 222 220 218 219 216 215 214 214 217 220 224 228 228 228 227 231 241 244 240 235 232 235 240 244 249 255 263 270 278 286 292 298 304 307 312 318 322 325 327 327 326 325 322 319 317 314 312 311 310 309 308 307 307 308 311 314 315 316 319 321 324 327 328 330 333 336 336 332 326 324 325 324 317 312 306 288 270 261 255 253 255
216 212 212 217 221 225 224 215 212 215 216 217 218 220 223 226 227 228 227 231 238 241 238 231 229 234 242 247 253 259 266 274 283 288 293 302 308 310 316 321 324 325 326 326 326 325 323 320 318 315 313 311 310 308 306 306 306 307 310 312 313 315 318 321 324 326 328 330 332 334 336 334 329 324 322 322 318 313 308 295 277 264 256 254 255
217 214 214 217 221 229 223 210 210 213 214 216 217 220 224 226 227 228 229 231 233 233 232 230 234 241 246 250 255 262 270 278 285 291 298 308 313 315 319 323 323 324 324 324 324 323 322 320 318 316 315 312 310 307 305 304 305 306 309 310 312 314 317 320 322 325 327 328 330 333 334 334 332 324 318 319 318 313 308 300 286 273 265 262 260
216 215 214 215 221 228 217 207 211 212 212 214 215 219 224 226 226 227 228 229 229 229 230 233 238 243 247 252 257 265 272 279 286 294 303 310 314 317 320 323 322 322 322 321 321 321 320 319 318 316 315 312 309 306 304 303 304 306 307 309 311 313 315 318 321 323 325 327 328 330 332 333 332 327 319 315 315 313 307 299 289 278 272 268 265
215 214 212 216 227 229 215 207 211 213 213 214 216 220 223 223 223 224 225 226 227 229 230 233 238 241 247 252 258 266 273 280 288 298 305 308 313 317 319 320 320 319 319 318 318 318 317 317 316 315 313 311 309 306 304 303 304 305 306 307 310 312 314 317 320 322 323 325 326 327 329 331 331 331 326 317 310 309 306 299 291 282 274 269 268
215 215 218 229 234 224 207 204 209 211 213 215 217 219 218 219 220 222 225 227 229 230 230 231 236 240 246 252 259 267 274 282 291 299 304 307 311 314 316 317 318 318 318 316 316 316 315 315 314 313 311 310 308 307 305 305 305 305 306 307 309 311 314 316 318 319 321 322 324 324 326 328 329 330 331 325 314 305 303 299 294 287 280 274 271
217 222 231 237 227 205 196 203 207 208 210 212 212 212 213 216 219 223 226 228 229 229 230 233 237 242 249 255 263 270 278 286 293 297 302 305 308 311 313 315 317 317 316 316 316 315 315 314 312 311 309 309 308 307 306 306 306 306 306 308 309 311 314 315 316 318 319 320 321 322 323 324 327 328 329 329 324 313 304 299 296 291 287 282 275
218 220 223 217 203 195 201 206 206 208 209 210 210 210 213 216 218 221 222 223 225 228 231 236 241 247 254 261 268 275 282 288 293 297 301 303 305 308 310 312 314 314 314 315 316 316 314 313 311 309 308 308 308 307 307 307 307 307 307 308 310 312 314 315 316 317 318 318 319 320 320 321 323 325 325 327 328 323 312 301 297 293 288 284 278
215 212 210 204 197 198 207 208 207 209 208 209 211 212 214 217 218 218 219 220 223 226 231 238 245 253 261 268 275 281 285 289 293 296 299 301 303 305 307 309 310 311 313 314 314 314 313 312 310 309 308 307 308 307 307 308 308 308 309 310 312 313 314 316 316 316 317 317 317 317 318 318 319 321 322 324 326 327 321 310 303 299 294 286 278
211 210 210 205 201 207 215 213 212 211 211 213 215 215 216 219 220 220 222 224 226 230 236 243 251 259 267 274 279 283 285 288 291 294 296 299 301 304 305 307 309 310 312 312 312 312 312 311 310 308 307 307 307 307 307 308 309 310 311 312 313 314 315 315 316 316 316 316 316 316 316 315 315 317 319 321 323 325 325 320 312 308 307 301 286
211 213 212 210 212 221 220 218 219 217 217 218 217 218 221 225 228 228 229 231 234 238 243 248 256 263 270 275 278 281 284 286 289 292 295 298 300 302 304 307 309 311 311 311 310 311 311 311 310 308 307 306 306 307 308 309 310 311 312 312 313 314 314 315 315 315 315 315 315 314 313 313 313 314 316 317 319 321 323 323 320 314 312 313 304
213 217 217 218 223 227 219 224 232 229 226 226 222 223 229 231 232 232 233 236 238 242 246 252 260 265 269 274 277 280 283 286 289 292 295 297 298 300 303 307 310 311 310 309 309 310 311 311 309 307 307 306 307 308 309 310 311 312 312 313 313 313 313 313 313 313 314 313 313 311 311 311 310 311 312 314 315 316 317 319 321 319 314 311 310
214 218 220 222 228 234 229 233 240 236 234 234 230 231 234 234 235 235 235 238 242 246 251 256 262 266 270 273 276 279 282 284 288 290 293 295 296 300 304 307 310 310 309 308 309 310 311 311 310 308 307 307 308 309 309 310 311 311 312 312 312 312 312 311 311 311 311 311 311 310 309 308 308 308 309 310 311 312 314 315 316 317 316 312 308
216 218 220 223 231 236 234 235 241 239 236 236 237 239 237 236 239 241 242 246 250 255 259 263 267 270 271 273 274 277 279 282 286 289 291 294 296 300 304 307 309 309 308 308 309 310 312 312 311 309 308 307 308 308 308 309 309 309 310 310 311 311 311 311 310 310 310 310 309 309 308 307 306 306 306 307 308 309 309 310 311 311 312 312 309
216 217 219 223 228 233 234 237 241 240 237 239 243 244 240 237 241 244 247 253 258 263 266 268 270 271 271 271 272 274 277 280 284 286 289 291 295 299 302 306 308 308 308 308 309 311 312 312 311 309 308 307 307 307 307 307 307 308 308 309 309 310 310 311 311 311 311 310 310 309 308 307 306 305 305 305 305 306 306 306 306 306 306 307 307
216 216 219 221 224 228 233 239 241 240 239 242 247 249 244 241 243 242 244 253 260 264 266 267 268 269 269 269 270 273 275 277 280 283 285 289 292 297 301 306 307 307 308 309 310 311 312 311 310 308 307 306 305 305 305 306 307 307 308 309 310 311 312 312 313 312 312 311 310 309 308 307 305 304 304 304 303 303 304 304 303 302 302 301 301
214 215 220 225 228 228 230 237 240 239 239 241 247 250 248 246 247 245 246 252 258 262 264 266 267 269 269 269 270 272 273 275 277 280 284 287 291 296 301 305 307 307 308 310 312 312 311 310 309 307 306 305 305 305 305 306 307 308 310 312 313 314 314 314 313 313 312 311 309 308 307 305 303 302 301 300 300 300 300 300 299 298 297 296 296
212 214 221 228 231 229 228 234 239 238 237 241 246 249 250 250 252 252 252 253 256 261 264 267 270 271 271 270 270 271 271 272 275 278 282 286 290 295 300 304 306 307 309 312 312 312 311 310 308 307 305 305 304 305 305 307 309 312 314 315 315 315 314 314 313 311 310 309 308 307 305 304 302 300 298 296 296 295 295 295 295 294 293 293 292
213 217 222 227 230 229 228 233 237 236 237 243 246 247 249 253 255 256 254 254 259 263 265 269 272 273 272 271 270 269 269 270 273 276 281 285 288 293 299 303 305 307 310 312 313 312 311 309 307 306 304 304 304 305 308 311 314 315 315 315 314 314 313 313 312 312 311 310 310 309 307 306 305 303 301 298 296 294 293 293 292 292 291 290 289
217 220 223 228 232 234 234 236 235 233 236 245 248 248 252 256 256 257 258 261 265 266 267 270 272 272 272 271 269 267 266 268 271 275 279 283 287 293 299 303 305 308 311 313 313 312 310 309 307 305 304 305 306 309 312 314 314 314 314 313 313 313 313 313 313 313 313 312 312 311 310 309 308 306 304 302 300 298 295 294 292 291 289 288 288
219 221 225 229 236 241 243 241 236 233 238 247 251 253 257 261 263 265 267 269 270 269 270 270 270 270 270 269 267 265 264 266 269 273 277 282 287 293 299 303 306 309 312 314 314 312 310 308 307 307 307 309 311 313 314 314 313 313 313 313 313 314 314 314 314 314 314 313 312 311 311 310 308 307 306 304 303 301 298 296 293 291 289 288 286
220 223 227 231 238 242 242 240 237 237 241 248 252 255 260 264 267 269 270 270 271 271 271 270 269 267 264 264 263 262 262 264 267 272 276 280 287 294 299 302 306 310 313 314 313 311 309 308 307 308 309 311 312 312 312 312 313 313 313 313 314 314 314 314 314 314 313 312 312 311 310 310 308 308 307 306 305 304 302 299 297 294 291 289 287
223 226 230 233 236 239 239 239 240 243 245 248 251 258 265 269 269 269 270 271 272 272 272 272 269 265 260 258 258 259 260 263 266 270 274 280 287 294 298 302 306 310 312 312 310 308 307 306 307 308 309 311 311 312 312 312 313 313 313 314 314 314 314 314 313 313 312 311 311 311 310 310 309 309 308 308 307 307 306 305 303 300 297 293 290
227 230 232 233 235 239 243 245 246 244 244 247 254 265 271 270 268 269 270 272 273 274 274 273 271 268 262 256 253 255 258 261 265 268 273 280 287 292 296 301 305 309 310 309 307 305 304 305 306 307 309 311 312 312 312 312 312 313 313 314 314 314 314 313 313 313 313 313 313 313 313 312 312 311 311 310 310 310 310 309 308 307 305 301 298
232 234 236 238 238 241 246 250 250 246 245 251 261 269 271 269 269 270 270 272 273 275 277 275 272 270 264 255 250 251 255 259 263 267 273 281 287 291 295 300 304 306 306 305 303 302 302 304 306 308 310 312 313 313 312 312 313 314 314 314 314 314 314 315 315 315 316 316 315 315 315 315 315 315 314 314 314 313 313 313 312 311 310 309 306
238 241 243 244 244 247 249 250 249 249 252 259 265 268 268 268 269 270 270 272 273 275 276 276 273 269 262 253 248 247 251 255 260 266 274 281 285 290 294 298 301 302 302 301 300 300 302 304 307 310 312 313 313 313 313 313 313 314 314 314 315 315 316 316 316 315 315 315 315 316 316 317 317 317 317 317 317 317 317 317 317 316 315 314 312
245 248 249 247 246 248 247 245 246 251 256 261 264 265 267 268 268 269 270 271 272 273 275 274 273 269 262 252 245 244 247 252 259 267 275 280 284 288 292 296 298 298 298 298 297 299 302 306 309 312 313 313 313 313 313 313 313 314 314 315 316 316 315 314 313 312 312 313 314 315 316 317 317 317 318 318 319 320 320 320 320 320 319 319 318
245 247 247 246 247 247 245 244 247 252 256 260 263 265 266 267 267 268 269 269 270 270 271 273 272 269 262 252 245 242 245 253 261 269 274 279 283 286 290 292 293 293 295 296 296 298 303 307 311 312 312 312 312 312 312 313 314 315 315 316 316 315 314 313 312 312 313 314 315 316 317 317 318 319 319 320 320 321 321 321 321 321 322 323 322
244 246 247 249 249 247 247 250 255 257 260 262 264 266 267 267 267 267 268 268 268 269 270 271 270 266 261 252 245 242 248 256 263 268 273 278 281 284 287 288 288 291 295 297 296 299 303 308 311 311 311 312 311 311 313 314 315 316 316 316 316 316 316 316 316 317 317 317 318 319 319 320 321 322 322 322 321 321 321 320 321 321 322 322 321
240 242 245 247 247 248 251 256 259 260 261 264 267 269 268 267 267 267 266 267 267 268 268 270 269 264 258 250 245 246 252 258 263 268 273 277 280 282 284 284 285 291 297 298 297 299 304 308 310 310 310 310 310 312 314 315 315 315 315 316 317 318 319 320 320 320 320 321 322 322 323 324 324 324 323 323 324 324 323 322 321 320 320 320 320
238 240 242 243 244 247 251 254 256 259 262 267 270 268 265 264 264 264 263 265 267 267 267 267 265 258 251 247 247 249 254 258 263 269 273 275 278 281 282 283 286 292 297 298 298 300 304 307 308 309 309 309 311 313 314 314 314 314 315 316 319 322 323 323 323 323 324 325 325 326 326 326 325 325 326 327 327 327 325 324 323 322 322 321 322
236 238 239 241 243 246 250 253 257 260 265 268 268 265 263 262 261 261 262 265 266 266 264 265 261 253 248 247 249 250 253 258 264 269 272 274 278 280 282 285 287 292 296 297 297 300 304 306 307 307 308 309 311 312 312 312 313 314 315 318 321 324 326 325 324 325 326 327 328 328 327 327 327 329 330 330 329 328 327 326 325 325 325 325 326
229 231 234 238 242 246 251 255 258 262 265 267 266 264 263 262 261 262 264 267 267 265 262 261 256 250 247 248 248 249 254 260 264 268 270 274 278 281 284 286 288 291 294 295 297 301 303 304 305 306 307 309 311 311 311 312 313 315 316 319 321 324 325 325 325 326 327 328 328 328 328 329 331 332 332 330 330 329 329 329 328 329 330 331 332
231 233 236 240 245 249 253 257 259 262 263 264 264 263 262 263 263 262 263 264 264 261 256 252 247 244 244 245 246 249 254 259 263 266 270 274 279 282 285 287 289 291 293 295 298 300 301 302 303 304 306 308 309 310 311 313 315 316 317 319 321 323 324 325 325 326 326 327 328 329 330 332 333 333 332 331 332 333 332 332 333 335 336 336 335
238 240 242 246 249 252 255 257 259 261 262 263 262 262 263 265 264 261 259 258 254 249 246 246 243 241 240 241 244 248 254 258 262 265 270 274 279 282 285 287 288 291 294 296 297 298 300 301 302 303 306 307 308 310 312 314 315 316 317 319 321 322 323 324 323 324 325 327 329 330 332 333 333 332 332 334 335 336 337 337 338 339 338 337 336
242 243 245 247 249 251 254 257 259 262 263 263 263 264 266 264 260 257 256 254 247 241 241 243 242 239 237 238 242 250 256 258 261 264 269 274 278 283 285 286 289 292 294 295 295 296 298 299 300 303 305 306 308 311 312 314 315 316 318 320 322 322 322 321 321 323 326 328 329 330 330 331 331 332 334 337 339 340 340 340 340 339 338 338 337
242 243 245 246 249 252 255 258 261 263 263 262 263 265 263 257 253 252 254 252 245 242 243 244 242 239 235 235 242 252 256 257 259 263 269 274 279 282 283 286 290 293 293 292 293 294 295 296 299 302 304 306 309 311 312 313 315 317 320 322 323 323 322 321 321 324 326 326 327 327 329 330 331 334 337 339 340 341 341 340 339 339 340 340 340
240 242 244 247 250 253 256 259 260 260 260 261 263 261 255 250 249 251 251 247 243 241 242 242 241 238 236 237 245 252 254 256 261 267 272 276 278 279 282 286 290 291 289 289 291 291 292 295 299 302 304 307 309 310 312 314 316 320 322 323 324 323 322 321 321 322 323 324 324 326 329 331 333 336 338 340 341 341 340 340 339 340 341 342 342
238 242 245 248 251 253 255 256 255 255 256 258 257 254 251 249 247 245 243 241 239 238 239 240 240 240 239 241 246 251 255 261 267 271 273 274 275 277 282 287 288 286 285 286 288 288 290 294 298 302 305 306 308 310 313 316 318 321 323 323 323 322 320 319 319 319 321 323 325 328 329 331 333 336 338 339 341 341 340 340 340 340 342 343 344
237 241 244 246 248 250 250 249 248 249 251 251 248 245 245 244 242 242 246 247 244 243 243 244 244 244 243 245 249 255 261 266 269 270 270 271 274 279 283 285 284 282 282 284 284 285 288 293 298 301 304 306 309 312 315 318 320 321 322 321 320 319 317 317 317 318 321 324 326 327 328 330 332 335 337 339 340 340 340 339 340 340 342 344 345